This is the latest recevied weather packets stored in our database for station/object VE6EN. If no packets are shown the sender has not sent any weather packets the latest 10 day(s).
| Time | Temp. | Humidity | Pressure | Rain* | Wind** | Luminosity | Snow |
|---|---|---|---|---|---|---|---|
| 1777995600 | 2.78° C | 65% | 1018.5 hPa | 0 mm | - | - | - |
| 1777994999 | 2.78° C | 68% | 1018.4 hPa | 0 mm | - | - | - |
| 1777994399 | 2.22° C | 70% | 1018.4 hPa | 0 mm | - | - | - |
| 1777993798 | 2.22° C | 72% | 1018.4 hPa | 0 mm | - | - | - |
| 1777993205 | 2.22° C | 72% | 1018.4 hPa | 0 mm | - | - | - |
| 1777992599 | 1.67° C | 72% | 1018.3 hPa | 0 mm | - | - | - |
| 1777992000 | 1.67° C | 72% | 1018.2 hPa | 0 mm | - | - | - |
| 1777991398 | 1.67° C | 72% | 1018.2 hPa | 0 mm | - | - | - |
| 1777990800 | 1.67° C | 73% | 1018.2 hPa | 0 mm | - | - | - |
| 1777988999 | 1.11° C | 72% | 1018.2 hPa | 0 mm | - | - | - |
| 1777988398 | 1.11° C | 72% | 1018.1 hPa | 0 mm | - | - | - |
| 1777987799 | 1.11° C | 73% | 1018 hPa | 0 mm | - | - | - |
| 1777987199 | 1.11° C | 73% | 1018.1 hPa | 0 mm | - | - | - |
| 1777986599 | 1.11° C | 73% | 1018.2 hPa | 0 mm | - | - | - |
| 1777986002 | 1.11° C | 72% | 1018.2 hPa | 0 mm | - | - | - |
| 1777985399 | 0.56° C | 72% | 1018.1 hPa | 0 mm | - | - | - |
| 1777984799 | 0.56° C | 73% | 1018 hPa | 0 mm | - | - | - |
| 1777984199 | 0.56° C | 74% | 1018 hPa | 0 mm | - | - | - |
| 1777983600 | 0.56° C | 74% | 1017.9 hPa | 0 mm | - | - | - |
| 1777982999 | 0.56° C | 73% | 1017.9 hPa | 0 mm | - | - | - |
| 1777982402 | 1.11° C | 73% | 1017.8 hPa | 0 mm | - | - | - |
| 1777981800 | 1.11° C | 73% | 1017.9 hPa | 0 mm | - | - | - |
| 1777981200 | 1.11° C | 74% | 1017.9 hPa | 0 mm | - | - | - |
| 1777980600 | 1.11° C | 73% | 1017.7 hPa | 0 mm | - | - | - |
| 1777979999 | 1.11° C | 73% | 1017.8 hPa | 0 mm | - | - | - |
* Rain latest hour (hover to see other rain measurements)
** Current wind speed in m/s (hover to see current wind gust speed)